Hourly Weather Omagh

Today, 4 July, Saturday

Time Temperature Precipitation Wind Pressure Humidity
00:00 +12°C° 0 mm 0 mps 746 mmHg 98%
01:00 +12°C° 0 mm 0 mps 746 mmHg 98%
02:00 +12°C° 0 mm 0 mps 746 mmHg 98%
03:00 +12°C° 0 mm 0 mps 746 mmHg 98%
04:00 +12°C° 0 mm 0 mps 746 mmHg 98%
05:00 +12°C° 0 mm 0 mps 746 mmHg 98%
06:00 +13°C° 0 mm 1 mps 746 mmHg 98%
07:00 +13°C° 0.2 mm 1 mps 746 mmHg 98%
08:00 +14°C° 0.2 mm 1 mps 746 mmHg 98%
09:00 +14°C° 0.2 mm 1 mps 746 mmHg 98%
10:00 +14°C° 0.1 mm 1 mps 747 mmHg 97%
11:00 +14°C° 0.1 mm 2 mps 747 mmHg 97%
12:00 +15°C° 0.1 mm 2 mps 747 mmHg 97%
13:00 +15°C° 0 mm 2 mps 746 mmHg 95%
14:00 +16°C° 0 mm 2 mps 746 mmHg 94%
15:00 +16°C° 0 mm 2 mps 746 mmHg 93%
16:00 +16°C° 0.2 mm 2 mps 745 mmHg 94%
17:00 +16°C° 0.2 mm 2 mps 745 mmHg 95%
18:00 +16°C° 0.2 mm 3 mps 745 mmHg 96%
19:00 +16°C° 0.6 mm 3 mps 744 mmHg 97%
20:00 +14°C° 0.6 mm 4 mps 743 mmHg 97%
21:00 +14°C° 0.6 mm 4 mps 742 mmHg 98%
22:00 +14°C° 0.8 mm 5 mps 742 mmHg 97%
23:00 +14°C° 0.8 mm 6 mps 741 mmHg 96%

Tomorrow, 5 July, Sunday

Time Temperature Precipitation Wind Pressure Humidity
00:00 +14°C° 0.8 mm 6 mps 741 mmHg 96%
01:00 +13°C° 0.2 mm 6 mps 742 mmHg 95%
02:00 +11°C° 0.2 mm 6 mps 743 mmHg 95%
03:00 +10°C° 0.2 mm 5 mps 743 mmHg 94%
04:00 +10°C° 0.1 mm 5 mps 744 mmHg 93%
05:00 +9°C° 0.1 mm 5 mps 744 mmHg 91%
06:00 +10°C° 0.1 mm 4 mps 745 mmHg 90%
07:00 +9°C° 0.2 mm 5 mps 745 mmHg 88%
08:00 +10°C° 0.2 mm 6 mps 745 mmHg 86%
09:00 +10°C° 0.2 mm 6 mps 745 mmHg 84%
10:00 +11°C° 0.4 mm 7 mps 745 mmHg 85%
11:00 +11°C° 0.4 mm 7 mps 745 mmHg 85%
12:00 +11°C° 0.4 mm 7 mps 745 mmHg 86%
13:00 +11°C° 0.4 mm 8 mps 745 mmHg 84%
14:00 +11°C° 0.4 mm 8 mps 745 mmHg 83%
15:00 +12°C° 0.4 mm 8 mps 745 mmHg 82%
16:00 +12°C° 0.3 mm 8 mps 745 mmHg 82%
17:00 +11°C° 0.3 mm 7 mps 746 mmHg 83%
18:00 +11°C° 0.3 mm 7 mps 746 mmHg 83%
19:00 +11°C° 0.1 mm 6 mps 747 mmHg 85%
20:00 +10°C° 0.1 mm 6 mps 748 mmHg 86%
21:00 +9°C° 0.1 mm 5 mps 749 mmHg 87%
22:00 +9°C° 0 mm 5 mps 750 mmHg 88%
23:00 +8°C° 0 mm 5 mps 750 mmHg 89%

Day after tomorrow, 6 July, Monday

Time Temperature Precipitation Wind Pressure Humidity
00:00 +8°C° 0 mm 4 mps 751 mmHg 90%
01:00 +9°C° 0 mm 5 mps 751 mmHg 88%
02:00 +9°C° 0 mm 6 mps 752 mmHg 86%
03:00 +10°C° 0 mm 6 mps 752 mmHg 85%
04:00 +10°C° 0.1 mm 6 mps 753 mmHg 86%
05:00 +10°C° 0.1 mm 5 mps 754 mmHg 87%
06:00 +10°C° 0.1 mm 5 mps 755 mmHg 88%
07:00 +12°C° 0.1 mm 5 mps 756 mmHg 85%
08:00 +12°C° 0.1 mm 5 mps 756 mmHg 82%
09:00 +13°C° 0.1 mm 5 mps 757 mmHg 79%
10:00 +14°C° 0.1 mm 5 mps 758 mmHg 75%
11:00 +14°C° 0.1 mm 5 mps 758 mmHg 71%
12:00 +15°C° 0.1 mm 5 mps 759 mmHg 68%
13:00 +15°C° 0 mm 5 mps 759 mmHg 66%
14:00 +15°C° 0 mm 5 mps 760 mmHg 63%
15:00 +15°C° 0 mm 5 mps 760 mmHg 61%
16:00 +14°C° 0 mm 5 mps 760 mmHg 64%
17:00 +14°C° 0 mm 4 mps 761 mmHg 66%
18:00 +13°C° 0 mm 4 mps 761 mmHg 69%
19:00 +12°C° 0 mm 3 mps 761 mmHg 76%
20:00 +10°C° 0 mm 3 mps 761 mmHg 84%
21:00 +9°C° 0 mm 2 mps 761 mmHg 92%
22:00 +9°C° 0 mm 2 mps 761 mmHg 94%
23:00 +8°C° 0 mm 2 mps 761 mmHg 95%

7 July, Tuesday

Time Temperature Precipitation Wind Pressure Humidity
00:00 +8°C° 0 mm 2 mps 761 mmHg 97%
01:00 +8°C° 0 mm 2 mps 761 mmHg 97%
02:00 +8°C° 0 mm 2 mps 761 mmHg 97%
03:00 +8°C° 0 mm 2 mps 760 mmHg 96%
04:00 +8°C° 0 mm 2 mps 760 mmHg 95%
05:00 +9°C° 0 mm 2 mps 760 mmHg 93%
06:00 +10°C° 0 mm 2 mps 760 mmHg 92%
07:00 +10°C° 0 mm 2 mps 760 mmHg 90%
08:00 +10°C° 0 mm 2 mps 760 mmHg 89%
09:00 +12°C° 0 mm 2 mps 760 mmHg 87%
10:00 +12°C° 0.1 mm 2 mps 760 mmHg 88%
11:00 +12°C° 0.1 mm 2 mps 759 mmHg 89%
12:00 +12°C° 0.1 mm 2 mps 759 mmHg 90%
13:00 +11°C° 1.2 mm 3 mps 758 mmHg 92%
14:00 +11°C° 1.2 mm 3 mps 758 mmHg 95%
15:00 +11°C° 1.2 mm 4 mps 757 mmHg 98%
16:00 +11°C° 0.8 mm 4 mps 757 mmHg 98%
17:00 +11°C° 0.8 mm 4 mps 756 mmHg 98%
18:00 +12°C° 0.8 mm 4 mps 755 mmHg 98%
19:00 +13°C° 0.5 mm 4 mps 755 mmHg 98%
20:00 +13°C° 0.5 mm 4 mps 755 mmHg 98%
21:00 +14°C° 0.5 mm 4 mps 754 mmHg 98%
22:00 +14°C° 0.1 mm 4 mps 754 mmHg 97%
23:00 +15°C° 0.1 mm 4 mps 753 mmHg 97%

8 July, Wednesday

Time Temperature Precipitation Wind Pressure Humidity
00:00 +15°C° 0.1 mm 5 mps 753 mmHg 97%
01:00 +15°C° 0.9 mm 5 mps 752 mmHg 97%
02:00 +15°C° 0.9 mm 5 mps 752 mmHg 97%
03:00 +15°C° 0.9 mm 5 mps 751 mmHg 97%
04:00 +14°C° 0.3 mm 6 mps 751 mmHg 96%
05:00 +14°C° 0.3 mm 6 mps 751 mmHg 95%
06:00 +12°C° 0.3 mm 7 mps 751 mmHg 94%
07:00 +12°C° 0 mm 7 mps 751 mmHg 91%
08:00 +11°C° 0 mm 7 mps 751 mmHg 89%
09:00 +11°C° 0 mm 7 mps 751 mmHg 86%
10:00 +11°C° 0 mm 7 mps 752 mmHg 83%
11:00 +12°C° 0 mm 7 mps 752 mmHg 79%
12:00 +12°C° 0 mm 7 mps 753 mmHg 76%
13:00 +12°C° 0.1 mm 7 mps 753 mmHg 76%
14:00 +13°C° 0.1 mm 6 mps 754 mmHg 76%
15:00 +13°C° 0.1 mm 6 mps 754 mmHg 76%
16:00 +13°C° 0.1 mm 6 mps 754 mmHg 76%
17:00 +13°C° 0.1 mm 6 mps 755 mmHg 77%
18:00 +13°C° 0.1 mm 5 mps 755 mmHg 77%
19:00 +12°C° 0 mm 5 mps 756 mmHg 81%
20:00 +11°C° 0 mm 4 mps 756 mmHg 85%
21:00 +10°C° 0 mm 3 mps 757 mmHg 89%
22:00 +9°C° 0 mm 2 mps 757 mmHg 91%
23:00 +8°C° 0 mm 2 mps 757 mmHg 94%

9 July, Thursday

Time Temperature Precipitation Wind Pressure Humidity
00:00 +8°C° 0 mm 1 mps 758 mmHg 96%
01:00 +8°C° 0 mm 1 mps 758 mmHg 96%
02:00 +8°C° 0 mm 1 mps 758 mmHg 96%
03:00 +7°C° 0 mm 1 mps 758 mmHg 96%
04:00 +8°C° 0 mm 1 mps 759 mmHg 95%
05:00 +9°C° 0 mm 1 mps 759 mmHg 94%
06:00 +9°C° 0 mm 1 mps 759 mmHg 93%
07:00 +11°C° 0 mm 1 mps 759 mmHg 86%
08:00 +13°C° 0 mm 1 mps 759 mmHg 79%
09:00 +14°C° 0 mm 1 mps 759 mmHg 73%
10:00 +15°C° 0.1 mm 1 mps 759 mmHg 71%
11:00 +15°C° 0.1 mm 1 mps 759 mmHg 70%
12:00 +16°C° 0.1 mm 2 mps 759 mmHg 69%
13:00 +16°C° 0.1 mm 1 mps 759 mmHg 69%
14:00 +16°C° 0.1 mm 1 mps 759 mmHg 69%
15:00 +18°C° 0.1 mm 1 mps 759 mmHg 69%
16:00 +16°C° 0.2 mm 1 mps 759 mmHg 73%
17:00 +16°C° 0.2 mm 2 mps 758 mmHg 76%
18:00 +15°C° 0.2 mm 2 mps 758 mmHg 80%
19:00 +14°C° 0.1 mm 2 mps 758 mmHg 84%
20:00 +12°C° 0.1 mm 1 mps 758 mmHg 88%
21:00 +11°C° 0.1 mm 1 mps 758 mmHg 92%
22:00 +10°C° 0 mm 1 mps 758 mmHg 93%
23:00 +9°C° 0 mm 1 mps 758 mmHg 94%
Show more